User: anonymous   Login
Location: Unspecified
(44.0704°N, 88.6889°W)
Time: 01:59:58
(UTC+02:00)
Language:

Tiros 1 despin weight - Orbit

View from above orbital plane
View from above orbital plane
View from above satellite
View from above satellite

Ground track
Ground track

The orbit data is extracted from the following two-line orbital elements,

1   115U 60002D   19169.20845580 -.00000127  00000-0  12091-4 0  9991
2   115  48.1657 230.3628 0033660  79.1677 281.3021 14.83448802158743
Epoch (UTC): 18 June 2019 05:00:10
Eccentricity: 0.0033660
inclination: 48.1657°
perigee height: 595 km
apogee height: 642 km
right ascension of ascending node: 230.3628°
argument of perigee: 79.1677°
revolutions per day: 14.83448802
mean anomaly at epoch: 281.3021°
orbit number at epoch: 15874

The dashed part of the orbit path shows where the satellite is in the earth's shadow,  

DLR